• In Uzbekistan
  • List of Countries
  • For 7 days
  • Water Temperature
  • Satellite Maps
  • Weather Map
  • Weather Widgets
  • user-avatar
    Login

    Hourly Weather Karakol

    Today, 20 January, Sunday

    Time Temperature Precipitation Wind Pressure Humidity
    00:00 -5°C° 0 mm 4 mps 605 mmHg 47%
    01:00 -5°C° 0 mm 4 mps 605 mmHg 48%
    02:00 -5°C° 0 mm 4 mps 605 mmHg 50%
    03:00 -5°C° 0 mm 4 mps 605 mmHg 50%
    04:00 -7°C° 0 mm 4 mps 605 mmHg 50%
    05:00 -8°C° 0 mm 4 mps 604 mmHg 56%
    06:00 -7°C° 0 mm 4 mps 604 mmHg 55%
    07:00 -7°C° 0 mm 4 mps 604 mmHg 54%
    08:00 -7°C° 0 mm 5 mps 604 mmHg 53%
    09:00 -4°C° 0 mm 4 mps 603 mmHg 55%
    10:00 -3°C° 0 mm 4 mps 603 mmHg 58%
    11:00 -1°C° 0 mm 4 mps 603 mmHg 61%
    12:00 0°C° 0 mm 3 mps 603 mmHg 61%
    13:00 +1°C° 0 mm 3 mps 602 mmHg 61%
    14:00 +1°C° 0 mm 3 mps 602 mmHg 61%
    15:00 0°C° 0 mm 3 mps 602 mmHg 58%
    16:00 -1°C° 0 mm 3 mps 601 mmHg 56%
    17:00 -2°C° 0 mm 4 mps 601 mmHg 54%
    18:00 -3°C° 0 mm 4 mps 601 mmHg 54%
    19:00 -2°C° 0 mm 3 mps 602 mmHg 54%
    20:00 -4°C° 0 mm 3 mps 602 mmHg 54%
    21:00 -4°C° 0 mm 3 mps 602 mmHg 53%
    22:00 -4°C° 0 mm 3 mps 602 mmHg 53%
    23:00 -5°C° 0 mm 3 mps 602 mmHg 52%

    Tomorrow, 21 January, Monday

    Time Temperature Precipitation Wind Pressure Humidity
    00:00 -5°C° 0 mm 4 mps 602 mmHg 52%
    01:00 -5°C° 0 mm 4 mps 602 mmHg 51%
    02:00 -7°C° 0 mm 4 mps 602 mmHg 51%
    03:00 -7°C° 0 mm 4 mps 602 mmHg 52%
    04:00 -6°C° 0 mm 3 mps 602 mmHg 53%
    05:00 -6°C° 0 mm 3 mps 602 mmHg 54%
    06:00 -6°C° 0 mm 3 mps 602 mmHg 58%
    07:00 -6°C° 0 mm 3 mps 603 mmHg 62%
    08:00 -6°C° 0 mm 3 mps 603 mmHg 66%
    09:00 -4°C° 0 mm 2 mps 604 mmHg 69%
    10:00 -4°C° 0 mm 2 mps 604 mmHg 71%
    11:00 -3°C° 0 mm 2 mps 604 mmHg 74%
    12:00 -3°C° 0 mm 2 mps 604 mmHg 77%
    13:00 -3°C° 0 mm 2 mps 604 mmHg 81%
    14:00 -3°C° 0 mm 2 mps 604 mmHg 84%
    15:00 -4°C° 0.1 mm 2 mps 604 mmHg 85%
    16:00 -5°C° 0.1 mm 2 mps 604 mmHg 86%
    17:00 -4°C° 0.1 mm 1 mps 604 mmHg 87%
    18:00 -6°C° 0 mm 2 mps 605 mmHg 85%
    19:00 -7°C° 0 mm 2 mps 605 mmHg 83%
    20:00 -7°C° 0 mm 2 mps 605 mmHg 81%
    21:00 -7°C° 0 mm 2 mps 605 mmHg 78%
    22:00 -8°C° 0 mm 2 mps 604 mmHg 76%
    23:00 -9°C° 0 mm 3 mps 604 mmHg 73%

    Day after tomorrow, 22 January, Tuesday

    Time Temperature Precipitation Wind Pressure Humidity
    00:00 -10°C° 0 mm 3 mps 604 mmHg 71%
    01:00 -10°C° 0 mm 3 mps 604 mmHg 69%
    02:00 -10°C° 0 mm 3 mps 603 mmHg 66%
    03:00 -10°C° 0 mm 3 mps 603 mmHg 63%
    04:00 -10°C° 0 mm 3 mps 603 mmHg 61%
    05:00 -10°C° 0 mm 3 mps 603 mmHg 58%
    06:00 -9°C° 0 mm 3 mps 603 mmHg 57%
    07:00 -9°C° 0 mm 3 mps 603 mmHg 55%
    08:00 -9°C° 0 mm 3 mps 603 mmHg 53%
    09:00 -6°C° 0 mm 2 mps 603 mmHg 57%
    10:00 -5°C° 0 mm 2 mps 603 mmHg 61%
    11:00 -3°C° 0 mm 2 mps 603 mmHg 65%
    12:00 -3°C° 0 mm 2 mps 602 mmHg 66%
    13:00 -1°C° 0 mm 1 mps 602 mmHg 68%
    14:00 -1°C° 0 mm 1 mps 601 mmHg 70%
    15:00 -4°C° 0 mm 2 mps 601 mmHg 67%
    16:00 -5°C° 0 mm 2 mps 600 mmHg 64%
    17:00 -7°C° 0 mm 3 mps 600 mmHg 61%
    18:00 -7°C° 0 mm 3 mps 600 mmHg 59%
    19:00 -7°C° 0 mm 3 mps 601 mmHg 57%
    20:00 -7°C° 0 mm 3 mps 601 mmHg 55%
    21:00 -7°C° 0 mm 3 mps 601 mmHg 55%
    22:00 -6°C° 0 mm 2 mps 600 mmHg 54%
    23:00 -6°C° 0 mm 2 mps 600 mmHg 54%

    23 January, Wednesday

    Time Temperature Precipitation Wind Pressure Humidity
    00:00 -6°C° 0 mm 2 mps 600 mmHg 55%
    01:00 -6°C° 0 mm 2 mps 600 mmHg 55%
    02:00 -6°C° 0 mm 2 mps 600 mmHg 55%
    03:00 -6°C° 0 mm 2 mps 600 mmHg 55%
    04:00 -7°C° 0 mm 2 mps 599 mmHg 55%
    05:00 -7°C° 0 mm 2 mps 599 mmHg 54%
    06:00 -7°C° 0 mm 2 mps 600 mmHg 55%
    07:00 -7°C° 0 mm 2 mps 600 mmHg 55%
    08:00 -7°C° 0 mm 2 mps 601 mmHg 55%
    09:00 -4°C° 0 mm 1 mps 601 mmHg 59%
    10:00 -3°C° 0 mm 1 mps 601 mmHg 63%
    11:00 -2°C° 0 mm 1 mps 602 mmHg 67%
    12:00 -2°C° 0 mm 1 mps 601 mmHg 69%
    13:00 -2°C° 0 mm 1 mps 601 mmHg 72%
    14:00 -2°C° 0 mm 1 mps 601 mmHg 75%
    15:00 -3°C° 0 mm 1 mps 601 mmHg 74%
    16:00 -4°C° 0 mm 1 mps 601 mmHg 74%
    17:00 -6°C° 0 mm 1 mps 601 mmHg 74%
    18:00 -6°C° 0 mm 1 mps 602 mmHg 72%
    19:00 -7°C° 0 mm 2 mps 602 mmHg 70%
    20:00 -8°C° 0 mm 2 mps 603 mmHg 68%
    21:00 -8°C° 0 mm 2 mps 603 mmHg 66%
    22:00 -8°C° 0 mm 2 mps 603 mmHg 65%
    23:00 -8°C° 0 mm 2 mps 603 mmHg 63%

    24 January, Thursday

    Time Temperature Precipitation Wind Pressure Humidity
    00:00 -8°C° 0 mm 2 mps 603 mmHg 62%
    01:00 -9°C° 0 mm 2 mps 603 mmHg 61%
    02:00 -9°C° 0 mm 2 mps 603 mmHg 59%
    03:00 -9°C° 0 mm 2 mps 603 mmHg 60%
    04:00 -9°C° 0 mm 2 mps 603 mmHg 60%
    05:00 -9°C° 0 mm 2 mps 604 mmHg 60%
    06:00 -9°C° 0 mm 2 mps 604 mmHg 61%
    07:00 -9°C° 0 mm 2 mps 604 mmHg 62%
    08:00 -8°C° 0 mm 2 mps 605 mmHg 62%
    09:00 -7°C° 0 mm 2 mps 605 mmHg 65%
    10:00 -4°C° 0 mm 1 mps 605 mmHg 68%
    11:00 -3°C° 0 mm 1 mps 605 mmHg 70%
    12:00 -3°C° 0 mm 1 mps 605 mmHg 72%
    13:00 -3°C° 0 mm 1 mps 605 mmHg 74%
    14:00 -3°C° 0 mm 1 mps 605 mmHg 76%
    15:00 -4°C° 0 mm 1 mps 605 mmHg 76%
    16:00 -6°C° 0 mm 1 mps 605 mmHg 75%
    17:00 -8°C° 0 mm 2 mps 605 mmHg 74%
    18:00 -9°C° 0 mm 2 mps 605 mmHg 71%
    19:00 -9°C° 0 mm 2 mps 606 mmHg 67%
    20:00 -9°C° 0 mm 2 mps 606 mmHg 64%
    21:00 -9°C° 0 mm 2 mps 606 mmHg 61%
    22:00 -9°C° 0 mm 2 mps 606 mmHg 59%
    23:00 -10°C° 0 mm 2 mps 606 mmHg 57%

    25 January, Friday

    Time Temperature Precipitation Wind Pressure Humidity
    00:00 -10°C° 0 mm 2 mps 606 mmHg 54%
    01:00 -10°C° 0 mm 2 mps 606 mmHg 52%
    02:00 -10°C° 0 mm 2 mps 606 mmHg 49%
    03:00 -10°C° 0 mm 2 mps 605 mmHg 47%
    04:00 -10°C° 0 mm 2 mps 605 mmHg 45%
    05:00 -10°C° 0 mm 2 mps 605 mmHg 43%
    06:00 -10°C° 0 mm 2 mps 605 mmHg 43%
    07:00 -10°C° 0 mm 2 mps 606 mmHg 43%
    08:00 -10°C° 0 mm 2 mps 606 mmHg 42%
    09:00 -9°C° 0 mm 2 mps 606 mmHg 45%
    10:00 -6°C° 0 mm 1 mps 606 mmHg 48%
    11:00 -4°C° 0 mm 1 mps 606 mmHg 51%
    12:00 -4°C° 0 mm 1 mps 606 mmHg 55%
    13:00 -4°C° 0 mm 1 mps 605 mmHg 59%
    14:00 -4°C° 0 mm 1 mps 605 mmHg 63%
    15:00 -6°C° 0 mm 1 mps 605 mmHg 61%
    16:00 -9°C° 0 mm 2 mps 605 mmHg 60%
    17:00 -10°C° 0 mm 2 mps 604 mmHg 59%
    18:00 -12°C° 0 mm 3 mps 605 mmHg 56%
    19:00 -12°C° 0 mm 3 mps 605 mmHg 54%
    20:00 -13°C° 0 mm 3 mps 606 mmHg 51%
    21:00 -13°C° 0 mm 3 mps 605 mmHg 50%
    22:00 -13°C° 0 mm 3 mps 605 mmHg 49%
    23:00 -13°C° 0 mm 3 mps 605 mmHg 48%
    Show more